Location: Diebersbach
(48.5163°N, 8.0558°E)
Time: 21:04:32
(UTC+00:00)

USA 229 - Pass Details

Date: 26 October 2021
Orbit: 946 x 1266 km, 63.4° (Epoch: 25 November)

Event Time Altitude Azimuth Distance (km) Brightness Sun altitude
Rises 19:37:24 0° 255° (WSW) 3,684 7.2 -33.3°
Reaches altitude 10° 19:40:07 10° 264° (W) 2,772 6.5 -33.7°
Maximum altitude 19:46:08 37° 331° (NNW) 1,570 4.8 -34.6°
Enters shadow 19:48:16 31° 7° (N) 1,799 4.9 -35.0°
